Weather in Shanghai

China     31˚13′54″N   121˚28′10″E
temp.,
°C
wind,
m/s
gust,
m/s
humid.,
%
clouds,
%
prec.,
mm/h
press.,
hPa
HPBL,
m
3 december, thu
thu323:00+11˚nnw4776100 0.3 1031642
02:00+10˚nnw488193 0.3 1030561
05:00+10˚nnw6117774 0.3 1030889
08:00+10˚nnw6107187 0.7 1032948
11:00+11˚n696290 0.0 10321169
14:00+11˚n695894 0.1 10301288
17:00+10˚n695768 0.0 10311289
20:00+10˚n696565 0.1 10321018
4 december, fri
fri423:00+8˚n586525 0.0 1033944
02:00+8˚n585818 0.0 1032900
05:00+6˚n58620 0.0 1032713
08:00+7˚nnw47660 0.0 1033657
11:00+9˚nnw45557 0.0 10331065
14:00+9˚nnw565745 0.0 10311016
17:00+9˚n565945 0.1 1031974
20:00+8˚n465432 0.1 1032966
5 december, sat
sat523:00+8˚n35540 0.0 1032831
02:00+8˚n35570 0.0 1031637
05:00+7˚n35620 0.0 1030461
08:00+8˚n35600 0.0 1032762
11:00+11˚ne345042 0.0 10311238
14:00+11˚ne334959 0.0 10291275
17:00+11˚ne3456100 0.0 10301048
20:00+11˚ne355799 0.0 1030922
6 december, sun
sun623:00+11˚ene376345 0.0 1029527
02:00+10˚e236625 0.0 1028126
05:00+10˚ene237025 0.0 1028115
08:00+11˚ene266637 0.0 1029501
11:00+14˚e355675 0.0 10291013
14:00+14˚e455479 0.0 10261102
17:00+13˚e355899 0.0 1027916
20:00+12˚e266453 0.0 1028514
7 december, mon
mon723:00+13˚e266561 0.0 1028527
02:00+12˚e256678 0.0 1028292
05:00+12˚ene246595 0.0 1028223
08:00+13˚ene256389 0.0 1029559
11:00+13˚ne346393 0.0 1030933
14:00+13˚ne456397 0.0 1029932
17:00+12˚ne4663100 0.0 1030905
20:00+12˚ne4666100 0.0 1032906